Flag for U.S.A. Weather past 2 weeks in Bridgeport, Connecticut, U.S.A.

Now
16 °F

Passing clouds.


Feels Like: 9 °F
Forecast: 11 / 29 °F
Wind: 5 mph from North

Location: Sikorsky Memorial Airport

Current Time: Mar 1, 2015 at 6:50:03 AM

Latest Report: Mar 1, 2015 at 5:52 AM


Visibility: 10 mi

Pressure: 30.68 "Hg

Humidity: 65%

Dew point: 6 °F

Location of BridgeportLocation

Historic Weather in Bridgeport — Graph

°F

Bridgeport temperature yesterday

Maximum temperature yesterday: 27 °F (at 12:52 PM)
Minimum temperature yesterday: 8 °F (at 6:52 AM)
Average temperature yesterday: 19 °F

Past Weeks' High & Low Weather Summary

 TemperatureHumidityPressure
High36 °F (Feb 22, 11:52 AM)100% (Feb 14, 7:52 PM)30.80 "Hg (Feb 14, 7:52 PM)
Low-2 °F (Feb 16, 6:52 AM)25% (Feb 16, 3:52 PM)29.40 "Hg (Feb 15, 12:52 AM)
Average19 °F63%30.10 "Hg
* Reported Feb 14 5:52 AM — Mar 1 5:52 AM, Bridgeport, Weather by CustomWeather, © 2015

Note: Actual official high and low records may vary slightly from our data, if they occured in-between our weather recording intervals... More about our weather records

Advertising

Bridgeport weather history for previous 24 hours

 ConditionsComfort  
Time TempWeatherWind HumidityBarometerVisibility
5:52 AM
Sun, Mar 1
16 °FPassing clouds.5 mph65%30.68 "Hg10 mi
4:52 AM14 °FClear.No wind73%30.69 "Hg10 mi
3:52 AM13 °FClear.3 mph77%30.69 "Hg10 mi
2:52 AM13 °FClear.No wind67%30.70 "Hg10 mi
1:52 AM14 °FClear.No wind71%30.71 "Hg10 mi
12:52 AM16 °FClear.3 mph71%30.72 "Hg10 mi
11:52 PM
Sat, Feb 28
14 °FClear.No wind77%30.73 "Hg10 mi
10:52 PM14 °FClear.No wind73%30.74 "Hg10 mi
9:52 PM20 °FClear.No wind60%30.75 "Hg10 mi
8:52 PM23 °FClear.3 mph42%30.75 "Hg10 mi
7:52 PM24 °FClear.3 mph55%30.74 "Hg10 mi
6:52 PM24 °FClear.5 mph62%30.73 "Hg10 mi
5:52 PM26 °FClear.9 mph55%30.73 "Hg10 mi
4:52 PM26 °FSunny.13 mph55%30.73 "Hg10 mi
3:52 PM27 °FSunny.13 mph53%30.73 "Hg10 mi
2:52 PM26 °FSunny.13 mph57%30.73 "Hg10 mi
1:52 PM26 °FSunny.10 mph50%30.74 "Hg10 mi
12:52 PM27 °FSunny.5 mph35%30.77 "Hg10 mi
11:52 AM24 °FSunny.8 mph42%30.79 "Hg10 mi
10:52 AM22 °FSunny.7 mph46%30.80 "Hg10 mi
9:52 AM20 °FSunny.8 mph48%30.80 "Hg10 mi
8:52 AM17 °FSunny.7 mph51%30.80 "Hg10 mi
7:52 AM13 °FSunny.6 mph59%30.79 "Hg10 mi
6:52 AM8 °FSunny.7 mph69%30.76 "Hg10 mi
Weather by CustomWeather, © 2015

See weather overviewHow to use our weather pages